Flag for Germany Weather past 2 weeks in Erding, Bavaria, Germany

Now
39 °F

Broken clouds.


Feels Like: 32 °F
Forecast: 31 / 42 °F
Wind: 13 mph from Northwest

Location: Munich / Franz Josef Strauss Airport

Current Time: Mar 5, 2015 at 4:09:15 PM

Latest Report: Mar 5, 2015 at 3:20 PM


Visibility: N/A

Pressure: 30.48 "Hg

Humidity: 61%

Dew point: 27 °F

Location of ErdingLocation

Historic Weather in Erding — Graph

°F

Erding temperature yesterday

Maximum temperature yesterday: 43 °F (at 12:50 PM)
Minimum temperature yesterday: 32 °F (at 11:20 PM)
Average temperature yesterday: 38 °F

Past Weeks' High & Low Weather Summary

 TemperatureHumidityPressure
High48 °F (Feb 20, 2:50 PM)100% (Feb 18, 4:50 PM)30.66 "Hg (Feb 18, 4:50 PM)
Low16 °F (Feb 20, 5:20 AM)43% (Feb 27, 2:20 PM)29.47 "Hg (Feb 21, 2:20 PM)
Average35 °F85%30.00 "Hg
* Reported Feb 18 2:20 PM — Mar 5 2:50 PM, Erding, Weather by CustomWeather, © 2015

Note: Actual official high and low records may vary slightly from our data, if they occured in-between our weather recording intervals... More about our weather records

Advertising

Erding weather history for previous 24 hours

 ConditionsComfort  
Time TempWeatherWind HumidityBarometerVisibility
2:50 PM
Thu, Mar 5
39 °FBroken clouds.9 mph70%30.48 "HgN/A
2:20 PM37 °FChilly.10 mph70%30.48 "HgN/A
1:50 PM37 °FSnow flurries. Broken clouds.10 mph75%30.48 "HgN/A
1:20 PM37 °FBroken clouds.13 mph75%30.48 "HgN/A
12:50 PM37 °FSnow flurries. Broken clouds.13 mph75%30.48 "HgN/A
12:20 PM37 °FBroken clouds.13 mph75%30.51 "HgN/A
11:50 AM37 °FPartly sunny.10 mph75%30.48 "HgN/A
11:20 AM37 °FPartly sunny.13 mph75%30.48 "HgN/A
10:50 AM36 °FPartly sunny.10 mph87%30.48 "HgN/A
10:20 AM36 °FPartly sunny.13 mph87%30.48 "HgN/A
9:50 AM36 °FPartly sunny.12 mph87%30.48 "HgN/A
9:20 AM36 °FPartly sunny.12 mph87%30.48 "HgN/A
8:50 AM34 °FBroken clouds.9 mph93%30.45 "HgN/A
8:20 AM34 °FBroken clouds.7 mph93%30.45 "HgN/A
7:50 AM34 °FBroken clouds.8 mph93%30.45 "HgN/A
7:20 AM34 °FFog.9 mph93%30.42 "Hg3 mi
6:50 AM32 °FSnow flurries. Broken clouds.8 mph100%30.42 "Hg1 mi
6:20 AM34 °FSnow flurries. Passing clouds.8 mph87%30.42 "Hg5 mi
5:20 AM32 °FSnow flurries. Partly cloudy.8 mph93%30.42 "HgN/A
4:20 AM32 °FSnow flurries. Partly cloudy.7 mph93%30.42 "HgN/A
3:50 AM28 °FPassing clouds.7 mph93%30.42 "HgN/A
2:50 AM34 °FPassing clouds.8 mph81%30.42 "HgN/A
2:20 AM34 °FClear.8 mph81%30.42 "Hg10 mi
1:50 AM34 °FClear.7 mph81%30.42 "Hg10 mi
1:20 AM34 °FPassing clouds.8 mph81%30.39 "HgN/A
12:50 AM34 °FPartly cloudy.9 mph81%30.39 "HgN/A
12:20 AM34 °FClear.8 mph81%30.39 "Hg10 mi
11:50 PM
Wed, Mar 4
32 °FClear.9 mph87%30.39 "Hg10 mi
11:20 PM32 °FClear.8 mph80%30.39 "Hg10 mi
10:20 PM34 °FClear.8 mph81%30.36 "Hg10 mi
9:50 PM34 °FClear.7 mph81%30.36 "Hg10 mi
9:20 PM36 °FClear.6 mph70%30.36 "Hg10 mi
8:50 PM36 °FClear.1 mph70%30.33 "Hg10 mi
8:20 PM37 °FPartly cloudy.3 mph65%30.33 "HgN/A
7:50 PM39 °FPassing clouds.5 mph61%30.33 "HgN/A
7:20 PM39 °FPartly cloudy.5 mph61%30.33 "HgN/A
6:50 PM39 °FPassing clouds.5 mph61%30.30 "HgN/A
6:20 PM39 °FClear.5 mph61%30.30 "Hg10 mi
5:50 PM39 °FSunny.7 mph56%30.30 "Hg10 mi
5:20 PM41 °FPartly sunny.7 mph53%30.27 "HgN/A
4:50 PM41 °FPartly sunny.8 mph66%30.27 "HgN/A
4:20 PM39 °FPartly sunny.8 mph75%30.27 "HgN/A
Weather by CustomWeather, © 2015

See weather overviewHow to use our weather pages